Regional Weather Roundup
Issued by NWS

Home | Current Version | Previous Version | Graphics & Text | Print | Product List | Glossary On
Versions: 1 2 3 4 5 6 7 8 9 10 11 12 13 14 15 16 17 18 19 20 21 22 23 24 25 26 27 28 29 30 31 32 33 34 35 36 37 38 39 40 41 42 43 44 45 46 47 48 49 50
000
ASUS43 KDTX 230201
RWRMI
MICHIGAN HOURLY REGIONAL WEATHER ROUNDUP
NATIONAL WEATHER SERVICE DETROIT/PONTIAC MI
1000 PM EDT WED MAR 22 2017

NOTE: "FAIR" INDICATES FEW OR NO CLOUDS BELOW 12,000 FEET WITH NO
SIGNIFICANT WEATHER AND/OR OBSTRUCTION TO VISIBILITY.

MIZ047>049-052>055-059>063-066>070-074>076-081>083-230300-
SOUTHEAST LOWER MICHIGAN

CITY           SKY/WX    TMP DP  RH WIND       PRES   REMARKS
ADRIAN         CLOUDY    28  19  69 SE3       30.53R
ALMA           CLEAR     27  14  58 SE6       30.53S WCI  20
ANN ARBOR      CLOUDY    27  16  63 CALM      30.53R
BAD AXE        CLEAR     22  14  71 SE3       30.54S
CARO           CLEAR     23   7  50 CALM      30.54R
DETROIT CITY   CLEAR     27  17  66 E9        30.56R WCI  18
DETROIT        MOCLDY    29  16  58 CALM      30.56R
FLINT          CLEAR     27  10  49 NE5       30.54R WCI  22
GROSSE ILE     CLEAR     28  18  65 E3        30.55R
HILLSDALE      CLOUDY    30  12  47 CALM      30.49R
HOWELL         CLEAR     27  11  50 CALM      30.52R

CITY           SKY/WX    TMP DP  RH WIND       PRES   REMARKS
JACKSON        CLEAR     29   9  43 NE5       30.51R WCI  24
LAMBERTVILLE   CLOUDY    29  15  56 SE3       30.54S
LANSING        CLEAR     28   8  43 E3        30.53S
LAPEER         FAIR      25  13  58 CALM      30.53S
MASON          CLEAR     28  15  58 CALM      30.51S
MONROE         CLOUDY    28  19  68 SE5       30.54S WCI  23
MT. CLEMENS    PTCLDY    24  16  73 E8        30.55R WCI  15
PONTIAC        PTCLDY    28  12  51 E6        30.52R WCI  22
PORT HOPE        N/A     21  14  74 S5        30.53F WCI  15
PORT HURON     CLEAR     19  14  79 CALM      30.57S
TRI CITIES     CLEAR     26  10  50 S6        30.54S WCI  19
MIDLAND        FAIR      28   7  41 S5        30.52F WCI  23
TROY           CLEAR     29  14  52 E3        30.57R
SAGINAW HB     CLEAR     27   9  46 SE3       30.54S
$$
MIZ043>046-050>051-056>058-064>065-071>073-077>080-230300-
SOUTHWEST LOWER MICHIGAN

CITY           SKY/WX    TMP DP  RH WIND       PRES   REMARKS
BATTLE CREEK   CLOUDY    32  10  40 E3        30.50S
BENTON HARBOR  PTCLDY    28  18  66 CALM      30.50F
BIG RAPIDS     CLEAR     28  13  52 CALM      30.49S
COLDWATER      PTCLDY    29  13  51 E3        30.50S
FREMONT        FAIR      27  16  64 N5        30.50S WCI  21
HOLLAND        PTCLDY    29  16  58 NE3       30.51F
GRAND RAPIDS   PTCLDY    29  10  45 SE8       30.50S WCI  21
IONIA          FAIR      26  13  56 E5        30.51S WCI  21
KALAMAZOO      CLOUDY    31  11  43 SE3       30.51R
LUDINGTON      CLEAR     24  18  78 CALM      30.51S
MARSHALL       CLOUDY    29  11  45 CALM      30.50S
MOUNT PLEASANT CLEAR     28  11  48 CALM      30.51S
MUSKEGON       CLOUDY    28  16  60 CALM      30.51F
SOUTH HAVEN    CLOUDY    26  19  74 NE3       30.51S
$$
MIZ016>042-230300-
NORTHERN LOWER MICHIGAN

CITY           SKY/WX    TMP DP  RH WIND       PRES   REMARKS
ALPENA         CLEAR     20  13  74 S5        30.53S WCI  13
BEAVER ISLAND  CLEAR     20  13  73 CALM      30.52R
BELLAIRE       CLEAR     21  12  69 CALM      30.53R
CADILLAC       CLEAR     25   8  48 CALM      30.46R
CHARLEVOIX     CLEAR     20  15  78 CALM      30.55R
FRANKFORT      CLEAR     20  14  76 CALM      30.52S
GAYLORD        CLEAR     24   5  44 CALM      30.47S
GRAYLING       CLEAR     20  11  67 CALM      30.49R
HARBOR SPRINGS CLEAR     20  16  84 CALM      30.52R
HOUGHTON LAKE  CLEAR     24  10  55 CALM      30.48S
MANISTEE       CLEAR     22  17  81 CALM      30.52S
OSCODA         CLEAR     19  11  70 CALM      30.53S
PELLSTON       CLEAR     22  11  62 NW3       30.52S
ROGERS CITY    CLEAR     20  13  73 CALM      30.53S
TRAVERSE CITY  PTCLDY    22  11  62 CALM      30.52R
$$
MIZ007>008-015-230300-
EASTERN UPPER MICHIGAN

CITY           SKY/WX    TMP DP  RH WIND       PRES   REMARKS
KINROSS        CLEAR     18  10  71 W5        30.52R WCI  11
MACKINAC ISLAN CLEAR     23  17  77 W6        30.51S WCI  15
NEWBERRY       CLEAR     22  13  69 CALM      30.50R
S. S. MARIE    CLEAR     20   9  62 W5        30.50F WCI  13
MUNISING         N/A     25  14  63 S7        30.48S WCI  17
$$
MIZ004>006-011>014-085-230300-
CENTRAL UPPER MICHIGAN

CITY           SKY/WX    TMP DP  RH WIND       PRES   REMARKS
MANISTIQUE     CLEAR     25  14  63 S6        30.50S WCI  18
ESCANABA       CLEAR     25  18  74 S6        30.50S WCI  18
MENOMINEE        N/A    N/A N/A N/A MISG        N/A
SAWYER-GWINN   CLEAR     25  14  63 S6        30.44S WCI  18
$$
MIZ001>003-009>011-084-230300-
WESTERN UPPER MICHIGAN

CITY           SKY/WX    TMP DP  RH WIND       PRES   REMARKS
IRON MOUNTAIN  CLEAR     27  11  51 SE7       30.43R WCI  19
HOUGHTON       CLEAR     23  13  65 E8        30.42R WCI  14
COPPER HARBOR    N/A     20  13  74 SE3       30.46S
IRONWOOD       CLEAR     31   9  39 SE6       30.37  WCI  25
$$

ABBREVIATIONS USED IN REMARKS
   TC - TEMPERATURE IN CELSIUS
  WCI - WIND CHILL INDEX
   HX - HEAT INDEX
  VSB - VISIBILITY





USA.gov is the U.S. government's official web portal to all federal, state and local government web resources and services.